User: anonymous   Login
Location: Pasadena-CA
(34.1440°N, 118.1100°W)
Time: 19:50:18
(UTC-08:00)
Language:

BlueWalker 3 - Orbit

View from above orbital plane
View from above orbital plane
View from above satellite
View from above satellite

Ground track
Ground track

The orbit data is extracted from the following two-line orbital elements,

1 53807U 22111AL  25345.98628470  .00009547  00000-0  28024-3 0  9997
2 53807  53.2291 191.2806 0005116 334.6881  25.3872 15.35845911181414
Epoch (UTC): 11 December 2025 23:40:14
Eccentricity: 0.0005116
inclination: 53.2291°
perigee height: 455 km
apogee height: 462 km
right ascension of ascending node: 191.2806°
argument of perigee: 334.6881°
revolutions per day: 15.35845911
mean anomaly at epoch: 25.3872°
orbit number at epoch: 18141

The dashed part of the orbit path shows where the satellite is in the earth's shadow,  

DLR